IZ2XSB-13 Weather Reports


Display with metric or nautical units.
time (UTC)temp
F
wind
direction
speed
MPH
gust
MPH
rain 1hr
in
rain 24hr
in
rain mn
in
humidity
%
barometer
mb
20260506051325 51 239 2.0 3.0 0.79 2.91 0.17 95 1011.1
20260506050823 51 173 0.0 1.0 0.75 2.87 0.17 95 1011.0
20260506050323 52 182 0.0 3.0 0.75 2.83 0.16 95 1011.0
20260506044824 52 50 1.0 3.0 0.55 2.64 0.12 95 1011.5
20260506044323 52 81 0.0 2.0 0.47 2.56 0.10 95 1011.8
20260506043841 52 81 1.0 2.0 0.39 2.48 0.09 95 1011.8
20260506043319 52 81 1.0 2.0 0.28 2.36 0.06 95 1011.7
20260506042821 52 81 0.0 2.0 0.20 2.28 0.05 95 1011.6
20260506042320 52 81 0.0 2.0 0.12 2.20 0.03 95 1011.5
20260506041818 52 81 0.0 3.0 0.08 2.17 0.02 95 1011.4
20260506041317 52 81 2.0 3.0 0.04 2.13 0.02 95 1011.4
20260506040818 52 32 2.0 3.0 0.04 2.13 0.02 95 1011.2
20260506040332 52 41 0.0 3.0 0.00 2.09 0.01 95 1011.3
20260506035852 52 22 1.0 3.0 0.00 2.09 0.01 95 1011.2
20260506035351 52 344 1.0 3.0 0.00 2.09 0.01 95 1011.1
20260506034829 52 360 2.0 3.0 0.00 2.09 0.01 95 1011.1
20260506034329 52 212 2.0 4.0 0.00 2.09 0.01 96 1011.2
20260506033830 52 262 1.0 4.0 0.00 2.09 0.01 96 1011.1
20260506033329 52 253 3.0 4.0 0.00 2.09 0.01 96 1011.1
20260506032828 52 234 2.0 3.0 0.00 2.09 0.01 96 1011.2
20260506032328 51 253 2.0 2.0 0.00 2.09 0.01 96 1011.2
20260506031829 52 242 2.0 2.0 0.00 2.09 0.01 96 1011.3
20260506031329 52 122 1.0 3.0 0.00 2.09 0.01 96 1011.4
20260506030849 52 105 2.0 3.0 0.00 2.09 0.01 96 1011.4
20260506030325 52 273 1.0 2.0 0.00 2.09 0.01 96 1011.5
20260506025824 52 242 1.0 2.0 0.00 2.09 0.01 96 1011.7
20260506025322 52 29 1.0 2.0 0.00 2.09 0.01 96 1012.0
20260506024820 52 83 1.0 3.0 0.00 2.09 0.01 96 1012.0
20260506024321 52 90 2.0 3.0 0.00 2.09 0.01 96 1012.0
20260506023821 52 20 2.0 3.0 0.00 2.09 0.01 96 1012.1
20260506023321 52 150 1.0 5.0 0.00 2.09 0.01 96 1012.1
20260506022819 52 306 2.0 5.0 0.00 2.09 0.01 96 1012.0
20260506022346 52 265 4.0 6.0 0.00 2.09 0.01 96 1012.2
20260506021824 52 232 2.0 3.0 0.00 2.09 0.01 96 1012.1
20260506021321 52 308 1.0 2.0 0.00 2.09 0.01 96 1012.2
20260506020843 52 29 1.0 3.0 0.00 2.09 0.01 96 1012.3
20260506020322 52 40 2.0 3.0 0.00 2.09 0.01 96 1012.3
20260506015819 52 164 1.0 3.0 0.00 2.09 0.01 96 1012.3
20260506015321 52 298 1.0 3.0 0.00 2.09 0.01 96 1012.4
20260506014821 52 295 2.0 3.0 0.00 2.09 0.01 96 1012.4
20260506014321 52 138 1.0 3.0 0.00 2.09 0.01 96 1012.4
20260506013821 52 76 0.0 2.0 0.00 2.09 0.01 96 1012.3
20260506013342 52 83 1.0 2.0 0.00 2.09 0.01 96 1012.3
20260506012838 52 37 1.0 2.0 0.00 2.09 0.01 96 1012.2
20260506012338 52 37 0.0 3.0 0.00 2.09 0.01 96 1012.3
20260506011836 52 232 1.0 3.0 0.00 2.09 0.01 96 1012.3
20260506011334 52 232 0.0 3.0 0.00 2.09 0.01 96 1012.3
20260506010834 51 300 2.0 4.0 0.00 2.09 0.01 96 1012.3
20260506010332 51 266 3.0 4.0 0.00 2.09 0.01 96 1012.4
20260506005832 51 250 3.0 4.0 0.04 2.09 0.01 96 1012.5
20260506005352 51 70 1.0 2.0 0.04 2.09 0.01 96 1012.6
20260506004830 51 70 0.0 2.0 0.04 2.09 0.01 96 1012.7
20260506004328 51 70 0.0 2.0 0.04 2.09 0.01 96 1012.7
20260506003844 52 150 1.0 3.0 0.04 2.09 0.01 96 1012.8
20260506003319 52 144 1.0 4.0 0.04 2.09 0.01 96 1012.8
20260506002840 52 338 3.0 4.0 0.04 2.09 0.01 96 1012.8
20260506002318 51 265 2.0 3.0 0.04 2.09 0.01 96 1012.8
20260506001818 51 214 2.0 3.0 0.04 2.09 0.01 96 1013.0
20260506001318 51 257 2.0 3.0 0.04 2.09 0.01 96 1013.0
20260506000816 51 216 0.0 1.0 0.04 2.09 0.01 96 1013.1
20260506000316 51 216 0.0 1.0 0.04 2.09 0.01 96 1013.2
20260505235815 51 216 0.0 2.0 0.00 2.05 0.00 96 1013.0
20260505235334 51 216 1.0 2.0 0.00 2.05 0.00 96 1013.1
20260505234833 51 240 0.0 2.0 0.00 2.05 0.00 96 1013.1
20260505234340 51 178 0.0 2.0 0.00 2.05 0.00 96 1013.0
20260505233819 51 178 1.0 2.0 0.00 2.05 0.00 96 1013.0
20260505233317 51 175 2.0 2.0 0.00 2.05 0.00 96 1013.1
20260505232817 51 84 0.0 2.0 0.00 2.05 0.00 96 1013.2
20260505232317 51 84 1.0 2.0 0.00 2.05 0.00 96 1013.3
20260505231817 51 84 0.0 2.0 0.00 2.05 0.00 96 1013.2
20260505231315 51 84 1.0 2.0 0.00 2.05 0.00 96 1013.2
20260505230817 51 99 1.0 2.0 0.08 2.05 0.00 96 1013.3
20260505230315 52 346 1.0 2.0 0.20 2.05 0.00 96 1013.2
20260505225821 52 224 1.0 2.0 0.28 2.05 0.00 96 1013.4
20260505225319 51 224 1.0 2.0 0.31 2.05 0.00 96 1013.3
20260505224839 51 247 2.0 2.0 0.39 2.05 0.00 96 1013.3
20260505224316 51 251 2.0 2.0 0.51 2.05 0.00 96 1013.4
20260505223815 51 260 1.0 2.0 0.63 2.05 0.00 95 1013.4
20260505223314 51 86 1.0 2.0 0.63 2.05 0.00 95 1013.4
20260505222814 52 86 1.0 3.0 0.63 2.05 0.00 95 1013.4
20260505222313 52 86 2.0 3.0 0.63 2.05 0.00 95 1013.4
20260505221831 52 62 2.0 3.0 0.63 2.05 0.00 95 1013.4
20260505221328 52 19 1.0 2.0 0.59 2.01 0.40 95 1013.4
20260505220828 51 242 0.0 4.0 0.55 1.97 0.39 95 1013.5
20260505220325 51 242 2.0 4.0 0.43 1.85 0.37 95 1013.7
20260505215826 52 242 3.0 4.0 0.35 1.77 0.35 95 1013.6
20260505215323 52 238 2.0 3.0 0.31 1.73 0.35 95 1013.5
20260505214822 52 42 1.0 2.0 0.24 1.65 0.33 95 1013.7
20260505214321 52 13 1.0 2.0 0.12 1.54 0.31 95 1013.8
20260505213820 52 78 1.0 2.0 0.00 1.42 0.28 95 1013.9
20260505213319 52 78 1.0 2.0 0.00 1.42 0.28 94 1013.9
20260505212820 52 65 1.0 3.0 0.00 1.42 0.28 94 1013.9
20260505212320 52 65 1.0 3.0 0.00 1.42 0.28 94 1013.9
20260505211820 52 114 1.0 3.0 0.00 1.42 0.28 94 1013.9
20260505211319 52 235 1.0 3.0 0.04 1.42 0.28 94 1014.0
20260505210817 52 228 2.0 3.0 0.08 1.42 0.28 94 1014.0
20260505210316 52 181 0.0 2.0 0.08 1.42 0.28 95 1014.0
20260505205835 52 181 1.0 2.0 0.08 1.42 0.28 94 1014.2
20260505205333 52 181 0.0 1.0 0.08 1.42 0.28 94 1014.2
20260505204832 52 181 0.0 1.0 0.08 1.42 0.28 94 1014.1
20260505204331 52 181 0.0 2.0 0.08 1.42 0.28 94 1014.2
20260505203832 52 181 0.0 2.0 0.08 1.42 0.28 94 1014.1
20260505203332 52 181 1.0 2.0 0.08 1.42 0.28 94 1014.1
20260505202831 52 103 1.0 2.0 0.08 1.42 0.28 93 1014.1
20260505202330 52 103 1.0 2.0 0.08 1.42 0.28 93 1014.2
20260505201829 52 153 0.0 2.0 0.08 1.42 0.28 93 1014.2
20260505201328 52 153 1.0 1.0 0.04 1.38 0.28 94 1014.1
20260505200831 52 153 0.0 2.0 0.00 1.34 0.27 94 1014.2
20260505200330 52 153 1.0 2.0 0.00 1.34 0.27 94 1014.1
20260505195829 52 153 2.0 2.0 0.00 1.34 0.27 94 1014.2
20260505195329 52 153 0.0 2.0 0.00 1.34 0.27 94 1014.2
20260505194829 52 153 0.0 2.0 0.00 1.34 0.27 94 1014.1
20260505194328 52 153 1.0 2.0 0.00 1.34 0.27 94 1014.0
20260505193827 52 153 1.0 2.0 0.00 1.34 0.27 94 1014.1
20260505193327 52 153 1.0 2.0 0.00 1.34 0.27 94 1014.0
20260505192827 52 302 1.0 3.0 0.00 1.34 0.27 94 1014.0
20260505192328 52 310 1.0 3.0 0.00 1.34 0.27 94 1013.9
20260505191828 52 89 1.0 3.0 0.00 1.34 0.27 94 1013.9
20260505191327 52 53 0.0 4.0 0.00 1.34 0.27 94 1013.9
20260505190843 52 53 2.0 4.0 0.00 1.34 0.27 94 1013.9
20260505190321 52 46 2.0 4.0 0.00 1.34 0.27 94 1013.9
20260505185818 52 254 2.0 4.0 0.00 1.34 0.27 95 1013.9
20260505185336 52 259 3.0 5.0 0.00 1.34 0.27 95 1013.9
20260505184815 52 257 4.0 5.0 0.00 1.34 0.27 94 1013.9
20260505184314 52 241 3.0 3.0 0.00 1.34 0.27 94 1013.9
20260505183814 52 235 2.0 3.0 0.00 1.34 0.27 94 1013.9
20260505183342 52 87 0.0 3.0 0.00 1.34 0.27 94 1013.9
20260505182821 52 92 1.0 4.0 0.00 1.34 0.27 94 1013.9
20260505182339 52 24 3.0 5.0 0.00 1.34 0.27 94 1013.9
20260505181817 52 49 3.0 5.0 0.00 1.34 0.27 93 1013.9
20260505181318 53 53 2.0 3.0 0.00 1.34 0.27 94 1013.9
20260505180837 52 292 1.0 3.0 0.00 1.34 0.27 94 1013.8
20260505180315 52 284 2.0 3.0 0.00 1.34 0.27 94 1013.7
20260505175815 52 288 2.0 3.0 0.00 1.34 0.27 95 1013.6
20260505175314 52 242 1.0 3.0 0.00 1.34 0.27 95 1013.5
20260505174814 52 244 2.0 3.0 0.00 1.34 0.27 95 1013.5
20260505174313 52 254 2.0 3.0 0.00 1.34 0.27 95 1013.7
20260505173832 52 245 2.0 3.0 0.00 1.34 0.27 95 1013.7
20260505173352 52 246 1.0 2.0 0.00 1.34 0.27 95 1013.7
20260505172830 52 180 1.0 2.0 0.00 1.34 0.27 95 1013.6
20260505172330 52 136 0.0 2.0 0.00 1.34 0.27 95 1013.6
20260505171828 52 136 0.0 2.0 0.00 1.34 0.27 95 1013.7
20260505171348 52 136 1.0 2.0 0.00 1.34 0.27 95 1013.6
20260505170827 52 241 0.0 1.0 0.00 1.34 0.27 95 1013.5
20260505170325 52 241 0.0 2.0 0.00 1.34 0.27 95 1013.7
20260505165825 52 241 1.0 2.0 0.00 1.34 0.27 95 1013.7
20260505165324 52 241 1.0 2.0 0.00 1.34 0.27 95 1013.8
20260505164823 52 241 1.0 1.0 0.04 1.34 0.27 95 1013.7
20260505164322 52 241 0.0 1.0 0.04 1.34 0.27 96 1013.7
20260505163821 52 241 0.0 1.0 0.08 1.34 0.27 95 1013.8
20260505163319 52 241 0.0 2.0 0.12 1.34 0.27 95 1013.8
20260505162818 52 241 1.0 2.0 0.16 1.34 0.27 95 1013.9
20260505162317 52 207 1.0 2.0 0.20 1.34 0.27 95 1013.9
20260505161817 52 167 1.0 2.0 0.28 1.34 0.27 95 1013.8
20260505161317 52 124 0.0 2.0 0.28 1.34 0.27 95 1013.9
20260505160815 52 124 1.0 2.0 0.28 1.34 0.27 95 1013.8
20260505160336 52 128 1.0 2.0 0.31 1.34 0.27 95 1013.9
20260505153332 52 138 1.0 2.0 0.31 1.22 0.24 94 1014.1
20260505152832 52 161 1.0 2.0 0.28 1.18 0.24 95 1014.1
20260505152332 52 161 1.0 1.0 0.24 1.14 0.23 94 1014.2
20260505151830 52 161 1.0 1.0 0.20 1.06 0.21 94 1014.2
20260505151346 52 161 1.0 2.0 0.20 1.06 0.21 94 1014.1
20260505150823 52 164 1.0 2.0 0.20 1.02 0.20 94 1014.2
20260505150322 52 171 0.0 2.0 0.20 1.02 0.20 94 1014.2
20260505140318 52 115 1.0 3.0 0.20 0.83 0.17 93 1014.1
20260505124831 52 160 0.0 2.0 0.28 0.59 0.12 92 1014.3
20260505124331 52 160 1.0 2.0 0.28 0.59 0.12 91 1014.4
20260505123849 52 237 0.0 2.0 0.28 0.59 0.12 90 1014.4
20260505123327 52 158 0.0 2.0 0.24 0.55 0.11 90 1014.5
20260505122827 52 146 1.0 2.0 0.16 0.47 0.09 90 1014.6
20260505122325 52 146 1.0 3.0 0.08 0.39 0.08 90 1014.7
20260505121824 53 161 2.0 5.0 0.08 0.39 0.08 89 1014.6
20260505121323 53 157 2.0 5.0 0.04 0.35 0.07 89 1014.6
20260505120821 53 209 1.0 3.0 0.00 0.31 0.06 89 1014.6
20260505120319 53 248 1.0 3.0 0.00 0.31 0.06 89 1014.6
20260505115819 53 181 1.0 2.0 0.00 0.31 0.06 89 1014.5
20260505115318 53 218 1.0 3.0 0.00 0.31 0.06 88 1014.6
20260505114818 53 225 1.0 3.0 0.00 0.31 0.06 88 1014.6
20260505114317 53 166 1.0 3.0 0.00 0.31 0.06 89 1014.6
20260505113831 53 142 0.0 1.0 0.00 0.31 0.06 89 1014.5
20260505113351 53 142 0.0 1.0 0.00 0.31 0.06 89 1014.6
20260505112829 52 142 0.0 1.0 0.00 0.31 0.06 88 1014.6
20260505112330 52 142 0.0 1.0 0.00 0.31 0.06 89 1014.5
20260505111828 52 142 0.0 2.0 0.00 0.31 0.06 90 1014.5
20260505111348 52 142 1.0 2.0 0.00 0.31 0.06 90 1014.6
20260505110827 53 142 0.0 2.0 0.00 0.31 0.06 91 1014.6
20260505110327 53 142 1.0 2.0 0.00 0.31 0.06 91 1014.4
20260505101843 53 243 3.0 5.0 0.04 0.31 0.06 86 1014.5
20260505101321 53 259 4.0 6.0 0.04 0.31 0.06 85 1014.6
20260505100821 53 252 2.0 3.0 0.08 0.31 0.06 87 1014.5
20260505100319 53 225 3.0 3.0 0.08 0.31 0.06 88 1014.5
20260505095817 53 213 2.0 7.0 0.08 0.31 0.06 86 1014.5
20260505095316 53 223 3.0 7.0 0.12 0.31 0.06 87 1014.3
20260505094816 53 223 1.0 3.0 0.16 0.31 0.06 88 1014.2
20260505094314 53 213 1.0 3.0 0.16 0.31 0.06 87 1014.3
20260505093814 53 259 2.0 3.0 0.20 0.31 0.06 87 1014.3
20260505093314 53 275 2.0 3.0 0.16 0.28 0.06 87 1014.2
20260505092815 52 254 2.0 3.0 0.16 0.28 0.06 87 1014.4
20260505092316 52 259 2.0 3.0 0.16 0.28 0.06 88 1014.4
20260505091833 52 265 2.0 5.0 0.20 0.28 0.06 89 1014.4
20260505091332 52 240 2.0 5.0 0.20 0.28 0.06 90 1014.4
20260505090831 52 250 3.0 4.0 0.16 0.24 0.05 90 1014.4
20260505090352 52 252 3.0 4.0 0.16 0.24 0.05 90 1014.3
20260505085829 52 242 2.0 3.0 0.12 0.20 0.05 90 1014.5
20260505085328 52 199 1.0 2.0 0.12 0.20 0.04 90 1014.5
20260505084826 53 155 1.0 2.0 0.08 0.16 0.03 90 1014.6
20260505084322 53 150 0.0 2.0 0.08 0.16 0.03 89 1014.5
20260505083842 53 162 1.0 2.0 0.04 0.12 0.02 88 1014.6
20260505083321 53 184 1.0 2.0 0.04 0.12 0.02 88 1014.8
20260505082819 53 228 0.0 2.0 0.08 0.12 0.02 87 1014.7
20260505082319 53 228 1.0 3.0 0.08 0.12 0.02 87 1014.7
20260505081820 53 246 1.0 4.0 0.04 0.08 0.02 86 1014.7
20260505081320 53 229 2.0 3.0 0.08 0.08 0.02 85 1014.7
20260505080821 53 248 2.0 2.0 0.08 0.08 0.02 85 1014.7
20260505080320 53 140 1.0 3.0 0.08 0.08 0.02 85 1014.7
20260505075819 53 138 1.0 3.0 0.08 0.08 0.02 84 1014.7
20260505075316 53 182 0.0 0.0 0.08 0.08 0.02 81 1014.6
20260505074844 53 182 0.0 0.0 0.08 0.08 0.02 82 1014.7
20260505074324 53 99 0.0 3.0 0.08 0.08 0.02 80 1014.8
20260505073840 54 99 0.0 3.0 0.08 0.08 0.02 82 1014.7
20260505073356 54 113 1.0 3.0 0.08 0.08 0.02 81 1014.7
20260505072855 54 48 1.0 3.0 0.04 0.04 0.01 79 1014.7
20260505072355 54 35 2.0 3.0 0.04 0.04 0.01 78 1014.8
20260505071832 54 340 1.0 3.0 0.04 0.04 0.01 77 1014.8
20260505071329 54 33 1.0 2.0 0.00 0.00 0.00 78 1014.6
20260505070848 54 97 1.0 3.0 0.00 0.00 0.00 80 1014.5
20260505070327 54 97 2.0 3.0 0.00 0.00 0.00 82 1014.5
20260505065825 54 121 2.0 4.0 0.00 0.00 0.00 81 1014.3
20260505065325 55 188 2.0 5.0 0.00 0.00 0.00 83 1014.3
20260505064823 55 173 2.0 6.0 0.00 0.00 0.00 80 1014.2
20260505064323 55 259 4.0 6.0 0.00 0.00 0.00 81 1014.2
20260505063819 55 237 4.0 5.0 0.00 0.00 0.00 79 1014.3
20260505063319 56 234 2.0 4.0 0.00 0.00 0.00 75 1014.2
20260505062817 56 280 2.0 4.0 0.00 0.00 0.00 73 1014.4
20260505062334 56 325 1.0 2.0 0.00 0.00 0.00 69 1014.2
20260505061833 56 77 1.0 2.0 0.00 0.00 0.00 68 1014.3
20260505061352 56 90 1.0 2.0 0.00 0.00 0.00 71 1014.3
20260505060830 56 89 1.0 2.0 0.00 0.00 0.00 69 1014.2
20260505060330 56 348 1.0 3.0 0.00 0.00 0.00 68 1014.1
20260505055829 56 136 1.0 3.0 0.00 0.00 0.00 68 1014.2